Tracking 19562 objects as of 24-Mar-2019
HD Live streaming from Space Station
objects crossing your sky now

SYNCOM 3

Track SYNCOM 3 now!
SYNCOM 3 is classified as:


NORAD ID: 858
Int'l Code: 1964-047A
Perigee: 35,792.8 km
Apogee: 35,818.6 km
Inclination: 0.8 °
Period: 1,436.7 minutes
Semi major axis: 42176 km
RCS: 6.3096 m2 (large)
Launch date: August 19, 1964
Source: United States (US)
Launch site: AIR FORCE EASTERN TEST RANGE (AFETR)
aabbcc
Your satellite tracking list
Your tracking list is empty




NASA's NSSDC Master Catalog

Two Line Element Set (TLE):
1   858U 64047A   19082.54943463 -.00000291 +00000-0 +00000-0 0  9993
2   858 000.7979 056.6323 0003055 229.7648 235.0853 01.00229256026978
Source of the keplerian elements: AFSPC